STARLINK-3615, 51778

Orbit data source: Space-Track

STARLINK-3615, 51778 is a payload satellite owned by SpaceX/Seattle (US) in LEO that was launched on Fri, 25 Feb 2022 UTC via an FALCON 9 launch vehicle from the Air Force Western Test Range (AFWTR). Payload-class satellites include a variety of spacecraft equipped with specific instruments for various scientific and technological missions. These include communications satellites like Starlink; space stations such as the ISS; scientific satellites like the Hubble; Earth observation satellites from companies like Planet Labs, Umbra, and HawkEye 360; GPS; miniature CubeSats for education and research; and military/defense satellites.

Loading next visibility...
Identifier
51778, 2022-017L
Orbit
LEO
Country
Flag of USUS
Related business
Manufacturer
SpaceX/Seattle
Mission
Operational Commercial Communications
Bus & Motor
STARLINK, Unknown motor
Mass
297 kg wet, ~275 kg dry
Launch date (UTC)
2022-02-25 (4 years ago)
Launch vehicle
FALCON 9
Launch site
Air Force Western Test Range (AFWTR)
Object type
Payload
Rocket body
Debris
Shape & HBR
Box + 1 Pan, 10.1 m
Radar Cross Section
13.562 m², Large (>1 m²)

Expand to show TLE details & history
Last TLE update: 2 days ago

TLE from 2 days ago
0 STARLINK-3615
1 51778U 22017L   26171.40426368  .00000205  00000-0  30952-4 0  9990
2 51778  53.1587 227.7758 0001183  90.5926 269.5201 15.08831758238061
Epoch: 2026-06-20T09:42Z
TLE epoch observation values (Epoch: 2026-06-20T09:42:08.381Z)
Latitude
-0.00004°
Longitude
173.62148°
Altitude
540.667 km
Speed
7.593 km/s
True Right ascension
15h 11m 06s
True Declination
0° 00' 00"
Sunlit
Object was in full shadow at epoch
Visualization orbit readout
Latitude
Unknown
Longitude
Unknown
Altitude
Unknown
Speed
Unknown
Apparent Right ascension
Unknown
Apparent Declination
Unknown
Sunlit
N/A
Visualization observer readout
Local Sidereal Time
21:31:43
Azimuth
Unknown
Elevation
Unknown
Doppler factor
Unknown
Orbital elements
Apogee altitude
540.841 km
Perigee altitude
539.204 km
Semi-major axis
6,918.16 km
Eccentricity
0.00012
Inclination
53.1587°
RAAN
227.7758°
Arg. of periapsis
90.5926°
True anomaly
269.50654°
Mean anomaly
269.5201°
Eccentric anomaly
269.51332°
Mean motion
3.77187 °/min
Orbital period
95.44 mins
BSTAR
0.000030952
Loading maneuver chart data...
Computing Atmospheric mass density...
Loading historical data...
Loading historical data...
Loading historical data...
Loading historical data...
Loading historical data...
Loading historical data...
Loading historical data...

Documentation

Showing up to 5 results
|